• In Germany
  • List of Countries
  • For 7 days
  • Water Temperature
  • Satellite Maps
  • Weather Map
  • Weather Widgets
  • user-avatar
    Login

    Hourly Weather Marsa Alam

    Today, 22 September, Saturday

    Time Temperature Precipitation Wind Pressure Humidity
    00:00 +34°C° 0 mm 2 mps 713 mmHg 31%
    01:00 +32°C° 0 mm 2 mps 713 mmHg 32%
    02:00 +32°C° 0 mm 2 mps 713 mmHg 32%
    03:00 +31°C° 0 mm 2 mps 713 mmHg 34%
    04:00 +30°C° 0 mm 2 mps 713 mmHg 35%
    05:00 +29°C° 0 mm 2 mps 713 mmHg 36%
    06:00 +31°C° 0 mm 2 mps 713 mmHg 33%
    07:00 +32°C° 0 mm 2 mps 714 mmHg 29%
    08:00 +35°C° 0 mm 3 mps 714 mmHg 26%
    09:00 +37°C° 0 mm 3 mps 714 mmHg 23%
    10:00 +38°C° 0 mm 3 mps 714 mmHg 20%
    11:00 +41°C° 0 mm 4 mps 714 mmHg 17%
    12:00 +41°C° 0 mm 4 mps 714 mmHg 17%
    13:00 +42°C° 0 mm 4 mps 714 mmHg 16%
    14:00 +43°C° 0 mm 5 mps 714 mmHg 16%
    15:00 +42°C° 0 mm 5 mps 713 mmHg 18%
    16:00 +41°C° 0 mm 4 mps 713 mmHg 20%
    17:00 +40°C° 0 mm 4 mps 713 mmHg 21%
    18:00 +38°C° 0 mm 4 mps 713 mmHg 24%
    19:00 +36°C° 0 mm 3 mps 713 mmHg 27%
    20:00 +35°C° 0 mm 3 mps 714 mmHg 29%
    21:00 +35°C° 0 mm 2 mps 714 mmHg 29%
    22:00 +34°C° 0 mm 2 mps 714 mmHg 29%
    23:00 +34°C° 0 mm 2 mps 714 mmHg 29%

    Tomorrow, 23 September, Sunday

    Time Temperature Precipitation Wind Pressure Humidity
    00:00 +32°C° 0 mm 2 mps 714 mmHg 29%
    01:00 +32°C° 0 mm 2 mps 713 mmHg 30%
    02:00 +31°C° 0 mm 2 mps 713 mmHg 30%
    03:00 +30°C° 0 mm 2 mps 713 mmHg 31%
    04:00 +30°C° 0 mm 2 mps 713 mmHg 32%
    05:00 +29°C° 0 mm 2 mps 713 mmHg 34%
    06:00 +31°C° 0 mm 3 mps 714 mmHg 30%
    07:00 +34°C° 0 mm 3 mps 714 mmHg 27%
    08:00 +35°C° 0 mm 3 mps 715 mmHg 24%
    09:00 +37°C° 0 mm 4 mps 715 mmHg 21%
    10:00 +40°C° 0 mm 4 mps 715 mmHg 18%
    11:00 +42°C° 0 mm 4 mps 715 mmHg 15%
    12:00 +42°C° 0 mm 4 mps 715 mmHg 14%
    13:00 +43°C° 0 mm 5 mps 714 mmHg 13%
    14:00 +45°C° 0 mm 5 mps 714 mmHg 12%
    15:00 +43°C° 0 mm 5 mps 713 mmHg 13%
    16:00 +42°C° 0 mm 5 mps 713 mmHg 15%
    17:00 +41°C° 0 mm 4 mps 713 mmHg 16%
    18:00 +40°C° 0 mm 4 mps 713 mmHg 20%
    19:00 +37°C° 0 mm 3 mps 714 mmHg 23%
    20:00 +36°C° 0 mm 2 mps 714 mmHg 27%
    21:00 +35°C° 0 mm 2 mps 714 mmHg 27%
    22:00 +34°C° 0 mm 2 mps 714 mmHg 28%
    23:00 +34°C° 0 mm 2 mps 714 mmHg 29%

    Day after tomorrow, 24 September, Monday

    Time Temperature Precipitation Wind Pressure Humidity
    00:00 +32°C° 0 mm 2 mps 714 mmHg 30%
    01:00 +31°C° 0 mm 2 mps 713 mmHg 31%
    02:00 +31°C° 0 mm 2 mps 713 mmHg 31%
    03:00 +30°C° 0 mm 2 mps 713 mmHg 34%
    04:00 +30°C° 0 mm 2 mps 713 mmHg 36%
    05:00 +29°C° 0 mm 2 mps 713 mmHg 38%
    06:00 +31°C° 0 mm 2 mps 713 mmHg 34%
    07:00 +34°C° 0 mm 3 mps 714 mmHg 31%
    08:00 +35°C° 0 mm 3 mps 714 mmHg 27%
    09:00 +37°C° 0 mm 3 mps 714 mmHg 23%
    10:00 +40°C° 0 mm 4 mps 714 mmHg 19%
    11:00 +42°C° 0 mm 4 mps 714 mmHg 15%
    12:00 +42°C° 0 mm 4 mps 714 mmHg 14%
    13:00 +43°C° 0 mm 4 mps 713 mmHg 13%
    14:00 +43°C° 0 mm 4 mps 713 mmHg 12%
    15:00 +43°C° 0 mm 4 mps 713 mmHg 14%
    16:00 +42°C° 0 mm 4 mps 712 mmHg 15%
    17:00 +41°C° 0 mm 4 mps 712 mmHg 17%
    18:00 +38°C° 0 mm 3 mps 713 mmHg 19%
    19:00 +37°C° 0 mm 3 mps 713 mmHg 22%
    20:00 +35°C° 0 mm 2 mps 713 mmHg 24%
    21:00 +35°C° 0 mm 2 mps 713 mmHg 24%
    22:00 +35°C° 0 mm 2 mps 713 mmHg 23%
    23:00 +34°C° 0 mm 2 mps 713 mmHg 22%

    25 September, Tuesday

    Time Temperature Precipitation Wind Pressure Humidity
    00:00 +34°C° 0 mm 2 mps 713 mmHg 23%
    01:00 +32°C° 0 mm 2 mps 712 mmHg 23%
    02:00 +32°C° 0 mm 2 mps 712 mmHg 23%
    03:00 +31°C° 0 mm 2 mps 712 mmHg 25%
    04:00 +31°C° 0 mm 2 mps 712 mmHg 26%
    05:00 +30°C° 0 mm 2 mps 712 mmHg 28%
    06:00 +32°C° 0 mm 2 mps 712 mmHg 27%
    07:00 +34°C° 0 mm 3 mps 713 mmHg 25%
    08:00 +36°C° 0 mm 3 mps 713 mmHg 23%
    09:00 +38°C° 0 mm 3 mps 713 mmHg 21%
    10:00 +40°C° 0 mm 4 mps 713 mmHg 19%
    11:00 +42°C° 0 mm 4 mps 713 mmHg 17%
    12:00 +42°C° 0 mm 4 mps 713 mmHg 16%
    13:00 +42°C° 0 mm 4 mps 712 mmHg 16%
    14:00 +42°C° 0 mm 5 mps 712 mmHg 16%
    15:00 +42°C° 0 mm 4 mps 712 mmHg 16%
    16:00 +41°C° 0 mm 4 mps 712 mmHg 17%
    17:00 +40°C° 0 mm 4 mps 712 mmHg 17%
    18:00 +38°C° 0 mm 4 mps 712 mmHg 19%
    19:00 +36°C° 0 mm 3 mps 712 mmHg 21%
    20:00 +35°C° 0 mm 3 mps 712 mmHg 23%
    21:00 +35°C° 0 mm 2 mps 712 mmHg 22%
    22:00 +34°C° 0 mm 2 mps 712 mmHg 22%
    23:00 +34°C° 0 mm 2 mps 712 mmHg 21%

    26 September, Wednesday

    Time Temperature Precipitation Wind Pressure Humidity
    00:00 +34°C° 0 mm 2 mps 712 mmHg 21%
    01:00 +32°C° 0 mm 2 mps 712 mmHg 21%
    02:00 +32°C° 0 mm 2 mps 711 mmHg 22%
    03:00 +31°C° 0 mm 2 mps 711 mmHg 23%
    04:00 +31°C° 0 mm 2 mps 711 mmHg 25%
    05:00 +30°C° 0 mm 2 mps 711 mmHg 27%
    06:00 +31°C° 0 mm 2 mps 712 mmHg 25%
    07:00 +34°C° 0 mm 2 mps 712 mmHg 23%
    08:00 +35°C° 0 mm 2 mps 713 mmHg 22%
    09:00 +37°C° 0 mm 3 mps 713 mmHg 20%
    10:00 +38°C° 0 mm 3 mps 713 mmHg 18%
    11:00 +41°C° 0 mm 4 mps 713 mmHg 16%
    12:00 +41°C° 0 mm 4 mps 712 mmHg 16%
    13:00 +42°C° 0 mm 4 mps 712 mmHg 16%
    14:00 +42°C° 0 mm 4 mps 711 mmHg 16%
    15:00 +41°C° 0 mm 4 mps 712 mmHg 17%
    16:00 +40°C° 0 mm 4 mps 712 mmHg 19%
    17:00 +39°C° 0 mm 3 mps 712 mmHg 20%
    18:00 +37°C° 0 mm 3 mps 712 mmHg 23%
    19:00 +36°C° 0 mm 3 mps 712 mmHg 26%
    20:00 +35°C° 0 mm 2 mps 712 mmHg 28%
    21:00 +34°C° 0 mm 2 mps 712 mmHg 29%
    22:00 +34°C° 0 mm 2 mps 712 mmHg 30%
    23:00 +32°C° 0 mm 1 mps 712 mmHg 31%

    27 September, Thursday

    Time Temperature Precipitation Wind Pressure Humidity
    00:00 +32°C° 0 mm 1 mps 712 mmHg 30%
    01:00 +32°C° 0 mm 2 mps 712 mmHg 30%
    02:00 +31°C° 0 mm 2 mps 711 mmHg 30%
    03:00 +31°C° 0 mm 2 mps 711 mmHg 31%
    04:00 +30°C° 0 mm 1 mps 711 mmHg 31%
    05:00 +29°C° 0 mm 1 mps 712 mmHg 32%
    06:00 +31°C° 0 mm 2 mps 712 mmHg 28%
    07:00 +33°C° 0 mm 3 mps 713 mmHg 24%
    08:00 +35°C° 0 mm 3 mps 713 mmHg 21%
    09:00 +36°C° 0 mm 3 mps 713 mmHg 20%
    10:00 +37°C° 0 mm 3 mps 713 mmHg 19%
    11:00 +38°C° 0 mm 3 mps 713 mmHg 18%
    12:00 +38°C° 0 mm 3 mps 713 mmHg 19%
    13:00 +39°C° 0 mm 3 mps 712 mmHg 19%
    14:00 +39°C° 0 mm 3 mps 712 mmHg 20%
    15:00 +38°C° 0 mm 3 mps 712 mmHg 21%
    16:00 +37°C° 0 mm 3 mps 712 mmHg 23%
    17:00 +37°C° 0 mm 3 mps 712 mmHg 25%
    18:00 +36°C° 0 mm 3 mps 712 mmHg 28%
    19:00 +35°C° 0 mm 2 mps 712 mmHg 30%
    20:00 +34°C° 0 mm 2 mps 713 mmHg 33%
    21:00 +32°C° 0 mm 2 mps 713 mmHg 34%
    22:00 +32°C° 0 mm 2 mps 713 mmHg 36%
    23:00 +31°C° 0 mm 2 mps 713 mmHg 37%
    Show more